Location: Heidgraben
(53.7081°N, 9.6576°E)
Time: 04:45:09
(UTC+00:00)

SPOT 5 - Pass Details

Date: 05 July 2020
Orbit: 622 x 816 km, 98.3° (Epoch: 06 August)

Event Time Altitude Azimuth Distance (km) Brightness Sun altitude
Exits shadow 21:13:56 - 179° (S) 2,569 5.2 -8.5°
Reaches altitude 10° 21:14:40 10° 180° (S) 2,281 4.9 -8.5°
Maximum altitude 21:19:35 56° 259° (WSW) 871 3.4 -8.9°
Drops below altitude 10° 21:24:17 10° 338° (NNW) 2,175 7.0 -9.2°
Sets 21:26:32 0° 342° (NNW) 3,067 8.2 -9.4°
